Location: ??
(35.4627°N, 139.3695°E)
Time: 05:46:53
(UTC+00:00)

Cosmos 1515 Rocket - Pass Details

Date: 25 November 2020
Orbit: 605 x 631 km, 82.5° (Epoch: 20 January)

Event Time Altitude Azimuth Distance (km) Brightness Sun altitude
Rises 20:50:15 0° 347° (NNW) 2,924 6.7 -8.0°
Reaches altitude 10° 20:52:32 10° 342° (NNW) 2,014 5.8 -7.6°
Maximum altitude 20:56:52 51° 267° (W) 797 3.8 -6.8°
Drops below altitude 10° 21:01:10 10° 192° (SSW) 2,002 6.3 -6.0°
Sets 21:03:26 0° 187° (S) 2,903 7.2 -5.5°
